GW6496 Weather Reports


Display with metric or nautical units.
time (UTC)temp
F
wind
direction
speed
MPH
gust
MPH
rain 1hr
in
rain 24hr
in
rain mn
in
humidity
%
barometer
mb
20260906105908 71 113 0.0 1.0 0.00 0.00 0.00 99 1013.7
20260906105404 71 96 0.0 1.0 0.00 0.00 0.00 99 1013.9
20260906104900 71 102 2.0 2.0 0.00 0.00 0.00 99 1013.7
20260906104358 71 44 0.0 1.0 0.00 0.00 0.00 99 1013.8
20260906103857 70 66 0.0 1.0 0.00 0.00 0.00 99 1013.8
20260906103355 70 40 1.0 1.0 0.00 0.00 0.00 99 1013.9
20260906102852 70 202 1.0 2.0 0.00 0.00 0.00 99 1013.8
20260906102350 71 133 0.0 2.0 0.00 0.00 0.00 99 1013.9
20260906101846 71 100 1.0 2.0 0.00 0.00 0.00 99 1013.6
20260906101341 71 131 2.0 2.0 0.00 0.00 0.00 99 1013.6
20260906100837 71 104 0.0 1.0 0.00 0.00 0.00 99 1013.7
20260906100335 71 235 0.0 1.0 0.00 0.00 0.00 99 1013.7
20260906095831 71 115 2.0 2.0 0.00 0.00 0.00 99 1013.8
20260906095326 71 119 2.0 2.0 0.00 0.00 0.00 99 1013.7
20260906094825 71 89 0.0 0.0 0.00 0.00 0.00 99 1013.7
20260906094320 71 113 0.0 1.0 0.00 0.00 0.00 99 1013.8
20260906093817 71 124 0.0 0.0 0.00 0.00 0.00 99 1013.9
20260906093313 71 11 0.0 1.0 0.00 0.00 0.00 99 1013.8
20260906092808 71 117 0.0 0.0 0.00 0.00 0.00 99 1013.9
20260906092307 71 129 0.0 0.0 0.00 0.00 0.00 99 1013.8
20260906091803 71 140 0.0 0.0 0.00 0.00 0.00 99 1013.7
20260906091259 71 32 0.0 0.0 0.00 0.00 0.00 99 1013.7
20260906090755 71 69 0.0 0.0 0.00 0.00 0.00 99 1013.8
20260906090254 71 135 0.0 0.0 0.00 0.00 0.00 99 1013.8
20260906085754 71 122 0.0 2.0 0.00 0.00 0.00 99 1013.9
20260906085253 71 55 0.0 0.0 0.00 0.00 0.00 99 1013.9
20260906084748 71 0 0.0 0.0 0.00 0.00 0.00 99 1013.7
20260906084248 71 6 0.0 1.0 0.00 0.00 0.00 99 1013.9
20260906083743 71 129 0.0 2.0 0.00 0.00 0.00 99 1013.8
20260906083238 71 15 0.0 0.0 0.00 0.00 0.00 99 1013.9
20260906082733 71 20 0.0 0.0 0.00 0.00 0.00 99 1013.7
20260906082228 70 102 0.0 1.0 0.00 0.00 0.00 99 1013.6
20260906081724 70 142 0.0 1.0 0.00 0.00 0.00 99 1013.6
20260906081219 71 103 0.0 1.0 0.00 0.00 0.00 99 1013.4
20260906080716 71 14 0.0 0.0 0.00 0.00 0.00 99 1013.4
20260906080212 71 135 0.0 0.0 0.00 0.00 0.00 99 1013.4
20260906075712 71 117 0.0 1.0 0.00 0.00 0.00 99 1013.3
20260906075206 71 50 0.0 0.0 0.00 0.00 0.00 99 1013.3
20260906074701 71 356 1.0 1.0 0.00 0.00 0.00 99 1013.6
20260906074200 71 135 0.0 0.0 0.00 0.00 0.00 99 1013.8
20260906073655 71 115 0.0 1.0 0.00 0.00 0.00 99 1013.7
20260906073151 71 119 0.0 0.0 0.00 0.00 0.00 99 1013.6
20260906072647 71 119 0.0 0.0 0.00 0.00 0.00 99 1013.8
20260906072142 71 113 0.0 1.0 0.00 0.00 0.00 99 1013.6
20260906071638 71 129 0.0 0.0 0.00 0.00 0.00 99 1013.8
20260906071138 71 48 1.0 1.0 0.00 0.00 0.00 99 1013.8
20260906070635 71 126 0.0 0.0 0.00 0.00 0.00 99 1013.8
20260906070130 71 113 0.0 1.0 0.00 0.00 0.00 99 1013.8
20260906065630 71 89 0.0 0.0 0.00 0.00 0.00 99 1013.7
20260906065125 71 89 0.0 0.0 0.00 0.00 0.00 99 1013.6
20260906064620 71 45 0.0 0.0 0.00 0.00 0.00 99 1013.7
20260906064115 71 18 1.0 1.0 0.00 0.00 0.00 99 1013.7
20260906063610 71 104 0.0 1.0 0.00 0.00 0.00 99 1013.8
20260906063106 71 114 1.0 1.0 0.00 0.00 0.00 99 1013.6
20260906062602 71 40 1.0 2.0 0.00 0.00 0.00 99 1013.9
20260906062101 71 124 0.0 1.0 0.00 0.00 0.00 99 1014.0
20260906061557 71 110 1.0 2.0 0.00 0.00 0.00 99 1014.0
20260906061056 71 113 0.0 1.0 0.00 0.00 0.00 99 1014.0
20260906060553 71 130 0.0 1.0 0.00 0.00 0.00 99 1014.1
20260906060050 71 96 0.0 1.0 0.00 0.00 0.00 99 1014.1
20260906055546 71 124 0.0 0.0 0.00 0.00 0.00 99 1014.2
20260906055041 72 147 0.0 1.0 0.00 0.00 0.00 99 1014.2
20260906054541 72 100 1.0 2.0 0.00 0.00 0.00 99 1014.3
20260906054036 72 38 0.0 1.0 0.00 0.00 0.00 99 1014.5
20260906053532 72 135 0.0 1.0 0.00 0.00 0.00 99 1014.4
20260906053028 71 21 0.0 1.0 0.00 0.00 0.00 99 1014.6
20260906052523 71 50 0.0 1.0 0.00 0.00 0.00 99 1014.6
20260906052020 72 10 0.0 1.0 0.00 0.00 0.00 99 1014.6
20260906051516 72 142 0.0 0.0 0.00 0.00 0.00 99 1014.7
20260906051011 72 95 0.0 1.0 0.00 0.00 0.00 99 1014.8
20260906050506 72 119 1.0 2.0 0.00 0.00 0.00 99 1014.9
20260906050006 72 15 0.0 0.0 0.00 0.00 0.00 99 1014.8
20260906045504 72 10 1.0 2.0 0.00 0.00 0.00 99 1014.9
20260906045000 72 108 0.0 1.0 0.00 0.00 0.00 99 1015.0
20260906044455 72 50 0.0 0.0 0.00 0.00 0.00 99 1014.9
20260906043951 72 59 0.0 1.0 0.00 0.00 0.00 99 1015.0
20260906043446 72 101 1.0 2.0 0.00 0.00 0.00 99 1014.7
20260906042942 72 50 0.0 0.0 0.00 0.00 0.00 99 1014.6
20260906042441 72 6 1.0 2.0 0.00 0.00 0.00 99 1014.4
20260906041936 72 124 0.0 1.0 0.00 0.00 0.00 99 1014.6
20260906041432 72 122 1.0 1.0 0.00 0.00 0.00 99 1014.7
20260906040932 72 134 1.0 1.0 0.00 0.00 0.00 99 1014.6
20260906040427 72 37 0.0 1.0 0.00 0.00 0.00 99 1014.5
20260906035923 72 9 2.0 2.0 0.00 0.32 0.32 99 1014.6
20260906035418 72 8 0.0 1.0 0.00 0.32 0.32 99 1014.6
20260906034913 72 44 0.0 1.0 0.00 0.32 0.32 99 1014.5
20260906034413 72 142 0.0 1.0 0.00 0.32 0.32 99 1014.7
20260906033909 72 89 0.0 1.0 0.00 0.32 0.32 99 1014.6
20260906033408 72 14 1.0 2.0 0.00 0.32 0.32 99 1014.5
20260906032904 73 113 2.0 2.0 0.00 0.32 0.32 99 1014.7
20260906032400 72 53 0.0 0.0 0.00 0.32 0.32 99 1014.7
20260906031855 72 117 0.0 1.0 0.00 0.32 0.32 99 1014.9
20260906031350 72 121 0.0 2.0 0.00 0.32 0.32 99 1014.8
20260906030845 73 38 0.0 0.0 0.00 0.32 0.32 99 1014.8
20260906030341 73 28 0.0 0.0 0.00 0.32 0.32 99 1015.0
20260906025840 73 33 0.0 1.0 0.00 0.32 0.32 99 1015.2
20260906025334 73 49 0.0 1.0 0.00 0.32 0.32 99 1015.0
20260906024834 73 121 0.0 2.0 0.00 0.32 0.32 99 1014.9
20260906024333 73 137 0.0 1.0 0.00 0.32 0.32 99 1015.0
20260906023829 73 96 0.0 1.0 0.00 0.32 0.32 99 1015.0
20260906023325 73 37 0.0 1.0 0.00 0.32 0.32 99 1014.9
20260906022820 73 35 1.0 2.0 0.00 0.32 0.32 99 1015.1
20260906022315 73 61 0.0 1.0 0.00 0.32 0.32 99 1015.2
20260906021811 73 62 0.0 1.0 0.00 0.32 0.32 99 1015.1
20260906021310 73 39 1.0 2.0 0.00 0.32 0.32 99 1015.1
20260906020810 73 11 0.0 1.0 0.00 0.32 0.32 99 1015.1
20260906020309 73 15 0.0 1.0 0.00 0.32 0.32 99 1014.9
20260906015804 73 115 0.0 2.0 0.00 0.32 0.32 99 1015.2
20260906015305 73 96 1.0 2.0 0.00 0.32 0.32 99 1015.1
20260906014803 73 118 1.0 2.0 0.00 0.32 0.32 99 1015.2
20260906014258 73 92 1.0 2.0 0.00 0.32 0.32 99 1015.2
20260906013754 73 27 1.0 2.0 0.00 0.32 0.32 98 1015.1
20260906013249 73 48 0.0 2.0 0.00 0.32 0.32 99 1015.1
20260906012744 73 23 1.0 1.0 0.00 0.32 0.32 98 1014.9
20260906012239 73 343 1.0 2.0 0.00 0.32 0.32 99 1014.8
20260906011735 73 29 1.0 2.0 0.00 0.32 0.32 98 1014.5
20260906011234 73 121 0.0 2.0 0.00 0.32 0.32 98 1014.5
20260906010730 74 87 0.0 1.0 0.00 0.32 0.32 98 1014.6
20260906010226 74 80 0.0 2.0 0.00 0.32 0.32 98 1014.2
20260906005721 74 132 1.0 2.0 0.00 0.32 0.32 98 1014.0
20260906005220 74 130 0.0 2.0 0.00 0.32 0.32 98 1014.0
20260906004719 73 156 0.0 1.0 0.00 0.32 0.32 98 1014.0
20260906004214 73 128 0.0 2.0 0.00 0.32 0.32 98 1014.0
20260906003709 73 65 1.0 1.0 0.00 0.32 0.32 98 1013.9
20260906003205 73 7 0.0 1.0 0.00 0.32 0.32 98 1014.1
20260906002705 73 60 0.0 1.0 0.00 0.32 0.32 98 1014.0
20260906002200 73 79 0.0 1.0 0.00 0.32 0.32 98 1013.8
20260906001655 73 63 1.0 1.0 0.00 0.32 0.32 98 1013.7
20260906001155 73 23 1.0 2.0 0.00 0.32 0.32 98 1013.2
20260906000651 73 50 0.0 1.0 0.00 0.32 0.32 98 1013.1
20260906000146 74 13 0.0 2.0 0.00 0.32 0.32 98 1013.0
20260905235645 74 6 0.0 1.0 0.00 0.32 0.32 98 1012.8
20260905235140 73 44 0.0 2.0 0.00 0.32 0.32 98 1012.8
20260905234636 74 26 1.0 2.0 0.00 0.32 0.32 98 1012.8
20260905234131 74 95 0.0 1.0 0.00 0.32 0.32 98 1012.9
20260905233632 73 89 1.0 2.0 0.00 0.32 0.32 98 1013.0
20260905233125 73 25 0.0 0.0 0.00 0.32 0.32 98 1013.0
20260905232621 73 348 1.0 1.0 0.00 0.32 0.32 98 1013.3
20260905232117 73 25 1.0 2.0 0.00 0.32 0.32 98 1013.3
20260905231617 73 135 0.0 0.0 0.00 0.32 0.32 97 1013.2
20260905231113 73 108 1.0 2.0 0.00 0.32 0.32 97 1013.3
20260905230609 73 112 2.0 2.0 0.00 0.32 0.32 97 1013.3
20260905230107 73 76 2.0 3.0 0.00 0.32 0.32 97 1013.4
20260905225606 72 116 2.0 4.0 0.00 0.32 0.32 97 1013.6
20260905225102 72 62 2.0 2.0 0.00 0.32 0.32 97 1013.8
20260905224601 72 68 0.0 2.0 0.00 0.32 0.32 97 1013.2
20260905224101 72 127 1.0 4.0 0.00 0.32 0.32 97 1013.0
20260905223558 72 33 0.0 2.0 0.00 0.32 0.32 96 1012.9
20260905223054 72 13 1.0 2.0 0.00 0.32 0.32 95 1013.0
20260905222554 72 49 2.0 2.0 0.00 0.32 0.32 94 1012.9
20260905222049 72 30 1.0 2.0 0.02 0.32 0.32 94 1013.2
20260905221546 73 332 1.0 2.0 0.19 0.32 0.32 92 1013.4
20260905221042 73 236 1.0 3.0 0.66 0.31 0.31 89 1013.9
20260905220537 73 156 0.0 4.0 1.32 0.28 0.28 87 1014.2
20260905220033 75 60 0.0 5.0 0.99 0.17 0.17 88 1014.6
20260905215532 78 53 2.0 15.0 0.24 0.04 0.04 79 1014.5
20260905215029 81 290 2.0 6.0 0.00 0.00 0.00 73 1014.1
20260905214524 82 121 2.0 6.0 0.00 0.00 0.00 66 1014.3
20260905214019 85 48 4.0 10.0 0.00 0.00 0.00 59 1014.3
20260905213514 87 76 2.0 9.0 0.00 0.00 0.00 58 1013.9
20260905213010 89 8 4.0 9.0 0.00 0.00 0.00 60 1013.3
20260905212505 90 65 2.0 2.0 0.00 0.00 0.00 65 1012.7
20260905212004 90 339 0.0 1.0 0.00 0.00 0.00 63 1012.4
20260905211459 89 335 2.0 2.0 0.00 0.00 0.00 65 1012.4
20260905210955 90 330 2.0 2.0 0.00 0.00 0.00 65 1012.2
20260905210451 90 342 2.0 2.0 0.00 0.00 0.00 65 1012.5
20260905205950 90 338 2.0 2.0 0.00 0.00 0.00 64 1012.4
20260905205445 92 317 2.0 3.0 0.00 0.00 0.00 60 1012.3
20260905204943 94 300 1.0 3.0 0.00 0.00 0.00 58 1012.3
20260905204439 94 317 2.0 3.0 0.00 0.00 0.00 56 1012.4
20260905203938 93 304 0.0 2.0 0.00 0.00 0.00 57 1012.7
20260905203434 94 335 2.0 4.0 0.00 0.00 0.00 55 1012.7
20260905202930 97 330 2.0 2.0 0.00 0.00 0.00 53 1012.4
20260905202425 96 205 0.0 2.0 0.00 0.00 0.00 52 1012.8
20260905201920 95 343 2.0 2.0 0.00 0.00 0.00 51 1012.7
20260905201416 97 356 2.0 2.0 0.00 0.00 0.00 52 1013.0
20260905200915 98 221 2.0 4.0 0.00 0.00 0.00 49 1013.0
20260905200411 98 321 2.0 3.0 0.00 0.00 0.00 52 1012.9
20260905195909 98 322 2.0 3.0 0.00 0.00 0.00 49 1013.0
20260905195404 98 230 1.0 4.0 0.00 0.00 0.00 47 1012.9
20260905194900 98 259 3.0 4.0 0.00 0.00 0.00 48 1013.0
20260905194400 97 318 2.0 2.0 0.00 0.00 0.00 52 1012.9
20260905193900 96 224 0.0 2.0 0.00 0.00 0.00 53 1013.0
20260905193354 96 300 0.0 2.0 0.00 0.00 0.00 52 1013.2
20260905192850 97 309 2.0 4.0 0.00 0.00 0.00 52 1013.2
20260905192346 97 335 0.0 1.0 0.00 0.00 0.00 50 1013.3
20260905191845 97 315 0.0 3.0 0.00 0.00 0.00 50 1013.4
20260905191344 98 123 1.0 3.0 0.00 0.00 0.00 51 1013.7
20260905190843 98 295 2.0 6.0 0.00 0.00 0.00 50 1013.7
20260905190342 97 257 0.0 4.0 0.00 0.00 0.00 51 1013.6
20260905185841 97 195 3.0 3.0 0.00 0.00 0.00 48 1013.7
20260905185337 96 241 0.0 4.0 0.00 0.00 0.00 52 1013.8
20260905184835 97 126 0.0 3.0 0.00 0.00 0.00 49 1013.8
20260905184335 96 240 3.0 4.0 0.00 0.00 0.00 48 1014.0
20260905183833 97 131 1.0 4.0 0.00 0.00 0.00 48 1014.0
20260905183329 97 41 0.0 4.0 0.00 0.00 0.00 46 1014.1
20260905182824 97 239 3.0 5.0 0.00 0.00 0.00 48 1014.0
20260905182323 96 9 2.0 4.0 0.00 0.00 0.00 51 1014.1
20260905181819 95 38 2.0 3.0 0.00 0.00 0.00 51 1014.1
20260905181318 95 252 2.0 3.0 0.00 0.00 0.00 53 1014.4
20260905180817 95 46 2.0 2.0 0.00 0.00 0.00 54 1014.2
20260905180313 96 325 1.0 5.0 0.00 0.00 0.00 52 1014.4
20260905175808 95 299 2.0 3.0 0.00 0.00 0.00 53 1014.3
20260905175306 95 219 3.0 4.0 0.00 0.00 0.00 52 1014.6
20260905174757 95 260 1.0 7.0 0.00 0.00 0.00 55 1014.5
20260905174253 95 215 3.0 5.0 0.00 0.00 0.00 52 1014.8
20260905173749 95 33 1.0 6.0 0.00 0.00 0.00 55 1014.7
20260905173245 95 117 0.0 3.0 0.00 0.00 0.00 57 1014.7
20260905172744 95 240 4.0 4.0 0.00 0.00 0.00 53 1014.8
20260905172243 95 174 2.0 2.0 0.00 0.00 0.00 57 1014.8
20260905171740 95 344 0.0 2.0 0.00 0.00 0.00 55 1014.9
20260905171236 95 336 2.0 2.0 0.00 0.00 0.00 58 1014.9
20260905170732 94 267 1.0 5.0 0.00 0.00 0.00 54 1014.9
20260905170227 94 29 1.0 3.0 0.00 0.00 0.00 58 1015.1
20260905165721 94 275 1.0 6.0 0.00 0.00 0.00 58 1015.2
20260905165216 94 235 5.0 5.0 0.00 0.00 0.00 55 1015.1
20260905164716 93 339 1.0 2.0 0.00 0.00 0.00 60 1015.4
20260905164216 93 333 2.0 2.0 0.00 0.00 0.00 60 1015.4
20260905163712 92 11 0.0 2.0 0.00 0.00 0.00 61 1015.4
20260905163209 93 120 0.0 2.0 0.00 0.00 0.00 62 1015.5
20260905162704 93 221 2.0 2.0 0.00 0.00 0.00 62 1015.6
20260905162204 93 251 1.0 5.0 0.00 0.00 0.00 57 1015.7
20260905161659 93 58 2.0 2.0 0.00 0.00 0.00 60 1015.5
20260905161157 94 38 2.0 2.0 0.00 0.00 0.00 60 1015.6
20260905160656 93 299 1.0 3.0 0.00 0.00 0.00 56 1015.7
20260905160155 92 206 1.0 4.0 0.00 0.00 0.00 59 1015.8
20260905155650 92 235 6.0 6.0 0.00 0.00 0.00 56 1015.7
20260905155149 92 176 3.0 6.0 0.00 0.00 0.00 60 1015.9
20260905154643 93 3 2.0 2.0 0.00 0.00 0.00 62 1016.0
20260905154139 92 326 1.0 5.0 0.00 0.00 0.00 61 1016.1
20260905153635 92 228 2.0 3.0 0.00 0.00 0.00 60 1015.9
20260905153130 92 114 0.0 2.0 0.00 0.00 0.00 60 1015.9
20260905152625 92 349 2.0 2.0 0.00 0.00 0.00 62 1016.1
20260905152119 92 354 0.0 2.0 0.00 0.00 0.00 59 1016.1
20260905151614 91 36 0.0 1.0 0.00 0.00 0.00 61 1016.1
20260905151110 91 345 0.0 5.0 0.00 0.00 0.00 60 1016.2
20260905150605 90 89 0.0 1.0 0.00 0.00 0.00 61 1016.3
20260905150103 90 223 2.0 3.0 0.00 0.00 0.00 61 1016.4
20260905145602 89 29 0.0 3.0 0.00 0.00 0.00 65 1016.3
20260905145101 89 259 2.0 2.0 0.00 0.00 0.00 67 1016.3
20260905144557 88 293 1.0 2.0 0.00 0.00 0.00 66 1016.3
20260905144055 87 94 1.0 2.0 0.00 0.00 0.00 66 1016.3
20260905143555 86 120 2.0 2.0 0.00 0.00 0.00 69 1016.4
20260905143050 85 226 2.0 3.0 0.00 0.00 0.00 70 1016.2
20260905142550 84 333 0.0 2.0 0.00 0.00 0.00 74 1016.4
20260905142049 82 264 0.0 2.0 0.00 0.00 0.00 80 1016.4
20260905141544 82 21 0.0 2.0 0.00 0.00 0.00 81 1016.5
20260905141041 82 100 1.0 1.0 0.00 0.00 0.00 81 1016.4
20260905140541 81 91 2.0 2.0 0.00 0.00 0.00 79 1016.5
20260905140040 79 50 0.0 1.0 0.00 0.00 0.00 90 1016.4
20260905135536 78 75 0.0 0.0 0.00 0.00 0.00 91 1016.6
20260905135037 78 103 0.0 0.0 0.00 0.00 0.00 92 1016.5
20260905134536 78 118 1.0 2.0 0.00 0.00 0.00 93 1016.6
20260905134035 77 75 0.0 1.0 0.00 0.00 0.00 93 1016.5
20260905133531 77 93 1.0 1.0 0.00 0.00 0.00 93 1016.6
20260905133030 76 110 1.0 1.0 0.00 0.00 0.00 94 1016.6
20260905132530 76 127 0.0 1.0 0.00 0.00 0.00 94 1016.6
20260905132025 76 124 0.0 1.0 0.00 0.00 0.00 95 1016.9
20260905131521 75 126 1.0 1.0 0.00 0.00 0.00 96 1016.9
20260905131016 75 126 1.0 2.0 0.00 0.00 0.00 96 1017.0
20260905130515 74 121 0.0 2.0 0.00 0.00 0.00 97 1016.9
20260905130010 74 238 0.0 2.0 0.00 0.00 0.00 97 1016.9
20260905125504 74 173 0.0 1.0 0.00 0.00 0.00 97 1017.0
20260905125000 73 147 0.0 2.0 0.00 0.00 0.00 98 1017.0
20260905124457 73 111 1.0 2.0 0.00 0.00 0.00 98 1016.7
20260905123952 73 117 1.0 1.0 0.00 0.00 0.00 98 1016.9
20260905123448 73 105 0.0 2.0 0.00 0.00 0.00 98 1016.9
20260905122949 73 89 0.0 2.0 0.00 0.00 0.00 98 1017.0
20260905122448 72 110 0.0 1.0 0.00 0.00 0.00 98 1016.6
20260905121944 72 96 1.0 2.0 0.00 0.00 0.00 98 1016.7
20260905121439 72 85 0.0 2.0 0.00 0.00 0.00 98 1016.9
20260905120938 72 97 2.0 2.0 0.00 0.00 0.00 98 1016.5
20260905120433 72 124 0.0 1.0 0.00 0.00 0.00 98 1016.5
20260905115928 72 122 2.0 2.0 0.00 0.00 0.00 98 1016.6
20260905115427 72 118 0.0 2.0 0.00 0.00 0.00 98 1016.6
20260905114923 72 114 1.0 2.0 0.00 0.00 0.00 98 1016.4
20260905114422 72 111 0.0 2.0 0.00 0.00 0.00 98 1016.2
20260905113921 71 136 1.0 2.0 0.00 0.00 0.00 98 1016.2
20260905113417 71 136 1.0 2.0 0.00 0.00 0.00 98 1016.1
20260905112912 72 85 1.0 1.0 0.00 0.00 0.00 98 1016.2
20260905112407 72 57 0.0 2.0 0.00 0.00 0.00 98 1016.2
20260905111857 72 93 0.0 2.0 0.00 0.00 0.00 98 1016.1
20260905111356 72 119 0.0 1.0 0.00 0.00 0.00 98 1015.9
20260905110855 72 89 0.0 1.0 0.00 0.00 0.00 98 1015.9
20260905110350 72 86 0.0 2.0 0.00 0.00 0.00 98 1015.9